Location: Regensburg
(48.4565°N, 10.3217°E)
Time: 01:38:05
(UTC+02:00)

Envisat - Visible Passes

Search period start: 25 May 2018 00:00
Search period end: 04 June 2018 00:00
Orbit: 764 x 766 km, 98.2° (Epoch: 24 May)

Date Brightness Start Highest point End Pass type
(mag) Time Alt. Az. Time Alt. Az. Time Alt. Az.
25 May 5.5 21:47:37 10° SW 21:51:17 20° W 21:54:59 10° NW visible
27 May 5.8 22:15:26 10° WSW 22:17:13 12° W 22:19:01 10° WNW visible
30 May 5.7 22:03:06 10° WSW 22:05:54 15° W 22:08:44 10° NW visible
02 Jun 5.5 21:51:08 10° SW 21:54:36 18° W 21:58:05 10° NW visible
